Location: Cran-Gévrier
(45.9039°N, 6.1012°E)
Time: 05:20:53
(UTC+00:00)

YAOGAN 1 - Pass Details

Date: 09 February 2023
Orbit: 616 x 618 km, 97.8° (Epoch: 29 March)

Event Time Altitude Azimuth Distance (km) Brightness Sun altitude
Rises 18:08:05 0° 159° (SSE) 2,880 5.8 -13.6°
Reaches altitude 10° 18:10:15 10° 157° (SSE) 1,979 5.0 -13.9°
Maximum altitude 18:14:32 70° 74° (ENE) 662 2.5 -14.7°
Drops below altitude 10° 18:18:51 10° 351° (N) 1,995 5.2 -15.4°
Sets 18:21:04 0° 350° (N) 2,906 6.1 -15.8°
